Chatawa, MS

12:00 AM CDT on September 29, 2016 (GMT -0500)
McComb-Pike County-Lewis

Weather History for KMCB - July, 2013

Change the Weather History Date:

Friday, July 5, 2013

  Actual Average Record
Temperature  
Mean Temperature 75 °F -  
Max Temperature 81 °F 90 °F 99 °F (1979)
Min Temperature 70 °F 69 °F 63 °F (1968)
Cooling Degree Days 10    
Growing Degree Days 25 (Base 50)    
Moisture  
Dew Point 70 °F    
Average Humidity 84    
Maximum Humidity 97    
Minimum Humidity 69    
Precipitation  
Precipitation 0.02 in - - ()
Sea Level Pressure  
Sea Level Pressure 30.00 in    
Wind  
Wind Speed 3 mph (SE)    
Max Wind Speed 15 mph    
Max Gust Speed 24 mph    
Visibility 10 miles    
Events Rain , Thunderstorm    
Averages and records for this station are not official NWS values.
T = Trace of Precipitation, MM = Missing Value Source: NWS Daily Summary

Daily Weather History Graph

Daily Weather History Graph

Search for Another Location

Airport or City:

Trip Planner

Search our weather history database for the weather conditions in past years. The results will help you decide how hot, cold, wet, or windy it might be!

Date:

Astronomy

Jul. 05, 2013 Rise Set
Actual Time 6:03 AM CDT 8:09 PM CDT
Civil Twilight 5:35 AM CDT 8:37 PM CDT
Nautical Twilight 5:01 AM CDT 9:10 PM CDT
Astronomical Twilight 4:25 AM CDT 9:47 PM CDT
Moon 3:59 AM CDT (7/5) 6:07 PM CDT (7/5)
Length of Visible Light 15h 01m
Length of Day
14h 06m
Waning Crescent, 6% of the Moon is Illuminated
Jul 5
Waning Crescent
Jul 8
New
Jul 15
First Quarter
Jul 22
Full
Jul 29
Last Quarter

Hourly Weather History & Observations

Time (CDT) Temp. Heat Index Dew Point Humidity Pressure Visibility Wind Dir Wind Speed Gust Speed Precip Events Conditions
12:53 AM 73.9 °F - 70.0 °F 87% 29.98 in 10.0 mi South 3.5 mph - N/A   Mostly Cloudy
1:53 AM 73.9 °F - 70.0 °F 87% 29.98 in 10.0 mi Calm Calm - N/A Thunderstorm Mostly Cloudy
2:12 AM 73.4 °F - 69.8 °F 88% 30.00 in 10.0 mi Calm Calm - N/A   Overcast
2:53 AM 73.0 °F - 69.1 °F 87% 29.98 in 10.0 mi SSE 4.6 mph - 0.00 in Rain Light Rain
3:53 AM 72.0 °F - 70.0 °F 93% 29.97 in 6.0 mi Calm Calm - 0.01 in Rain Light Rain
4:53 AM 71.1 °F - 70.0 °F 96% 29.96 in 10.0 mi Calm Calm - 0.01 in   Clear
5:53 AM 70.0 °F - 69.1 °F 97% 29.97 in 10.0 mi Calm Calm - N/A   Clear
6:53 AM 70.0 °F - 69.1 °F 97% 29.99 in 9.0 mi Calm Calm - N/A   Partly Cloudy
7:53 AM 73.0 °F - 70.0 °F 90% 29.99 in 10.0 mi Calm Calm - N/A   Partly Cloudy
8:53 AM 75.0 °F - 71.1 °F 87% 30.00 in 10.0 mi Calm Calm - N/A   Mostly Cloudy
9:53 AM 78.1 °F - 72.0 °F 81% 30.00 in 10.0 mi Calm Calm - N/A   Partly Cloudy
10:53 AM 80.1 °F 84.2 °F 73.0 °F 79% 30.01 in 10.0 mi Calm Calm - N/A   Clear
11:53 AM 79.0 °F - 73.9 °F 84% 30.02 in 10.0 mi East 3.5 mph - N/A   Clear
12:41 PM 80.6 °F 85.4 °F 73.4 °F 79% 30.04 in 10.0 mi East 5.8 mph - N/A   Mostly Cloudy
12:53 PM 79.0 °F - 73.0 °F 82% 30.02 in 10.0 mi SE 5.8 mph - N/A   Mostly Cloudy
1:02 PM 80.6 °F 85.4 °F 73.4 °F 79% 30.04 in 10.0 mi ESE 4.6 mph - N/A   Scattered Clouds
1:11 PM 80.6 °F 85.4 °F 73.4 °F 79% 30.04 in 10.0 mi SE 8.1 mph - N/A   Mostly Cloudy
1:53 PM 80.1 °F 84.2 °F 73.0 °F 79% 29.99 in 10.0 mi Variable 5.8 mph - N/A   Mostly Cloudy
2:53 PM 75.9 °F - 69.1 °F 79% 29.99 in 10.0 mi SSE 13.8 mph 24.2 mph N/A   Overcast
3:04 PM 77.0 °F - 69.8 °F 78% 30.00 in 10.0 mi Variable 6.9 mph - N/A   Overcast
3:53 PM 79.0 °F - 68.0 °F 69% 29.99 in 10.0 mi South 15.0 mph - N/A   Clear
4:24 PM 77.0 °F - 69.8 °F 78% 30.00 in 10.0 mi SSE 11.5 mph 23.0 mph N/A   Mostly Cloudy
4:53 PM 77.0 °F - 70.0 °F 79% 30.00 in 10.0 mi SSE 4.6 mph - N/A   Mostly Cloudy
5:22 PM 78.8 °F - 69.8 °F 74% 30.01 in 10.0 mi South 4.6 mph - N/A   Partly Cloudy
5:53 PM 77.0 °F - 70.0 °F 79% 29.95 in 10.0 mi South 12.7 mph - N/A   Clear
6:53 PM 77.0 °F - 69.1 °F 76% 29.98 in 10.0 mi Calm Calm - N/A   Scattered Clouds
7:00 PM 77.0 °F - 69.8 °F 78% 29.99 in 10.0 mi ESE 4.6 mph - N/A   Mostly Cloudy
7:07 PM 77.0 °F - 69.8 °F 78% 30.01 in 10.0 mi Calm Calm - N/A   Scattered Clouds
7:53 PM 75.0 °F - 68.0 °F 79% 29.99 in 10.0 mi SSE 8.1 mph - N/A   Clear
8:53 PM 73.0 °F - 68.0 °F 84% 29.99 in 10.0 mi Calm Calm - N/A   Clear
9:53 PM 71.1 °F - 68.0 °F 90% 30.01 in 10.0 mi Calm Calm - N/A   Clear
10:53 PM 71.1 °F - 68.0 °F 90% 30.01 in 10.0 mi Calm Calm - N/A   Scattered Clouds
11:35 PM 71.6 °F - 68.0 °F 88% 30.03 in 10.0 mi Calm Calm - N/A   Mostly Cloudy
11:53 PM 71.1 °F - 68.0 °F 90% 30.02 in 10.0 mi ENE 3.5 mph - N/A   Overcast